Wind_Speed
17 16 15 15 15 15 14 14 14 14 15 15 14 14 15 16 16 17 18 19 19 20 20 21 22 24 24 25 26 27 29 30 32 33 34 35 36 37 38 39 39 40
19 18 18 17 18 17 17 16 16 16 17 18 18 18 18 18 19 19 20 21 21 22 22 23 23 25 25 26 27 28 30 32 33 34 36 37 38 39 40 41 42 43
20 20 19 19 19 19 19 18 18 17 18 20 20 20 21 21 22 23 23 24 24 24 24 24 25 26 27 27 28 29 31 33 35 36 37 38 39 41 42 43 44 45
20 20 20 20 21 21 21 20 19 19 20 21 22 22 23 24 25 26 26 27 26 26 27 27 27 28 28 29 29 30 32 34 36 37 38 40 41 42 43 44 45 46
21 21 21 21 22 22 22 21 21 21 22 23 24 24 25 26 27 28 28 29 28 28 29 29 29 29 30 30 30 31 33 35 37 38 40 41 42 43 44 45 47 48
23 22 22 22 23 24 24 23 22 23 24 25 26 26 27 28 29 30 31 31 30 30 30 30 30 31 32 32 32 33 34 36 37 40 42 43 44 44 45 46 48 49
26 26 25 25 25 25 26 25 24 25 26 27 29 30 30 31 32 33 33 34 33 32 32 32 32 32 33 34 34 34 36 37 39 41 43 45 46 46 47 47 49 50
29 29 28 28 27 27 27 27 27 28 29 30 31 32 33 33 34 34 35 36 35 34 34 34 34 34 35 35 36 36 38 39 40 42 44 46 48 49 49 49 50 52
32 31 30 30 30 29 29 29 29 30 31 32 32 33 34 34 34 35 36 37 37 36 36 35 35 36 37 37 37 38 39 41 42 43 45 47 49 50 51 51 52 53
34 33 33 32 32 31 31 31 31 32 32 33 33 33 34 35 35 36 38 38 38 38 38 38 37 38 39 39 39 40 41 43 44 45 46 48 49 51 53 53 53 54
35 35 35 34 34 33 32 32 32 33 34 34 34 34 35 36 37 38 39 40 40 40 41 40 40 40 41 42 42 42 43 45 46 47 47 48 50 52 53 53 53 54
36 36 36 36 35 35 34 34 34 35 35 36 36 36 37 37 39 40 41 41 41 42 43 43 43 44 44 44 44 44 45 47 48 48 49 50 51 53 54 54 54 55
38 38 37 37 37 37 36 36 37 37 38 38 38 38 39 40 41 42 42 42 43 45 45 45 46 47 47 47 47 47 48 50 50 51 51 52 53 54 55 55 55 57
39 39 39 39 39 39 39 39 39 39 40 41 41 42 42 42 42 43 44 44 45 46 46 47 49 50 49 49 50 50 50 52 53 53 54 55 55 56 56 57 57 59
40 41 41 41 42 42 42 41 42 42 42 43 44 45 45 44 44 45 46 47 47 48 48 49 51 51 50 51 53 53 53 54 55 56 57 57 57 57 58 59 60 61
43 44 44 45 45 45 45 44 44 45 45 46 47 47 47 47 47 47 48 49 49 49 50 51 52 52 52 53 55 55 54 55 57 58 59 60 59 59 60 60 61 63
46 47 48 48 48 48 48 48 48 48 49 49 50 50 50 49 49 50 51 51 51 51 52 53 53 53 54 55 57 56 55 56 59 61 62 62 62 61 62 62 63 65
50 51 51 52 52 52 51 51 51 51 52 52 52 52 51 51 51 52 53 54 53 53 54 55 55 55 56 57 57 57 56 58 61 63 64 65 64 63 64 64 64 67
53 53 54 55 55 55 55 54 54 54 55 55 54 54 53 53 54 54 56 56 56 55 56 57 56 57 58 58 58 58 58 60 63 66 67 66 65 65 66 66 67 69
57 57 58 58 59 58 58 57 57 58 58 58 57 57 56 57 56 56 57 58 58 58 58 58 58 59 60 60 60 59 60 62 65 68 68 68 67 68 68 68 70 71
62 61 62 62 62 62 61 60 61 61 61 61 60 60 60 59 58 58 59 60 60 60 60 60 61 62 62 61 61 62 62 64 67 69 70 70 69 69 69 71 73 74
66 66 66 66 65 64 63 63 64 64 64 63 63 62 62 61 60 60 61 62 61 61 61 62 63 64 63 63 64 64 64 65 68 71 72 71 70 71 72 74 75 74
70 70 69 68 67 65 65 65 66 66 66 65 65 64 63 62 62 62 63 63 63 62 63 65 66 65 66 66 66 67 67 68 70 72 72 72 72 72 73 75 74 70
74 73 72 71 70 68 67 68 68 68 68 67 66 65 65 65 65 64 64 64 65 65 66 68 68 68 69 69 69 69 69 70 72 73 72 72 73 73 73 73 69 63
78 76 75 74 74 72 71 71 70 70 70 69 68 67 68 68 67 67 67 67 67 68 69 71 71 72 72 72 71 70 70 71 72 73 73 73 74 72 70 68 62 55
81 79 78 78 77 76 74 74 74 74 73 72 71 71 71 71 70 70 70 71 71 72 73 74 74 75 75 73 72 70 70 72 74 74 74 74 72 69 66 62 55 50
Wind_Direction
254 257 261 265 270 275 280 287 293 298 301 303 306 308 311 314 318 322 324 326 330 333 336 339 342 343 343 345 345 346 346 345 344 344 344 344 343 343 344 345 347 348
255 257 260 264 269 273 278 283 290 294 298 301 304 306 308 312 316 319 321 323 325 328 331 334 336 337 338 340 341 342 343 342 340 340 340 340 340 341 342 343 344 346
253 255 258 261 265 270 275 281 288 293 296 299 302 305 307 310 313 316 318 319 321 323 326 329 332 332 334 336 337 339 339 338 337 336 336 337 337 338 339 341 342 344
253 255 257 258 262 268 273 278 284 290 293 296 299 302 304 306 309 313 314 316 317 319 321 324 327 328 330 332 334 335 335 334 333 333 333 334 335 336 337 338 340 341
255 257 258 261 264 267 271 275 281 284 288 291 295 298 299 300 303 307 311 313 314 315 317 319 322 324 326 328 330 331 331 330 330 330 331 332 333 335 336 336 337 339
257 258 260 262 264 267 270 274 278 281 284 287 289 291 293 295 298 302 306 309 310 312 314 316 318 320 322 324 325 327 326 326 327 327 328 329 331 332 333 334 335 337
259 260 260 261 263 266 269 273 276 279 283 284 286 287 289 290 293 296 301 304 306 309 311 313 315 317 319 320 321 323 323 323 324 325 326 327 329 330 331 332 334 336
259 260 260 261 262 264 267 271 274 278 281 283 285 287 288 289 290 292 296 300 303 305 308 310 311 313 315 316 318 319 320 320 321 322 324 325 327 328 329 330 333 335
259 260 261 262 263 264 266 269 271 274 277 280 283 286 286 287 289 290 294 298 301 303 306 307 308 310 312 313 314 316 317 318 319 321 323 324 325 326 327 329 331 334
260 261 262 263 264 265 267 268 270 272 274 277 280 282 283 286 288 290 293 296 299 302 303 304 305 307 309 310 311 314 316 317 318 320 321 322 323 324 325 327 329 331
260 261 262 264 265 266 267 268 270 271 273 275 278 280 282 285 288 290 292 295 298 300 300 301 303 304 306 307 309 312 314 315 316 318 320 320 320 321 323 325 326 328
261 263 264 265 266 266 267 269 270 271 273 275 277 280 282 284 286 289 291 294 297 298 298 300 301 301 303 305 307 310 313 314 315 316 318 318 319 320 322 322 323 326
262 264 265 265 266 267 268 269 270 272 273 276 278 279 280 282 285 288 291 293 294 295 296 299 299 299 300 303 306 309 311 312 313 315 316 316 317 319 320 320 321 323
262 264 265 265 266 267 269 270 272 274 275 277 278 278 279 281 284 287 290 291 292 293 296 298 298 299 299 300 303 307 309 310 312 314 314 315 316 317 318 318 319 322
263 264 265 266 267 268 269 271 273 274 275 276 277 278 279 281 283 286 288 289 290 293 295 296 296 298 300 300 302 304 306 308 311 312 313 314 315 316 317 317 318 320
263 264 265 266 267 268 269 271 272 274 275 276 276 277 279 280 283 286 287 288 290 292 293 293 295 298 300 300 301 302 303 306 309 310 311 312 313 315 316 316 317 319
263 264 265 266 267 268 269 270 272 273 274 274 275 276 278 280 283 285 286 287 289 290 292 292 294 297 298 299 301 301 302 304 307 309 310 311 312 314 315 315 316 317
263 264 265 267 268 268 269 270 271 273 273 274 275 276 278 280 282 284 285 286 288 289 290 291 292 295 297 298 300 300 301 303 306 307 309 310 312 314 315 314 314 316
261 263 265 266 267 268 269 270 271 272 272 273 274 275 277 279 280 282 283 285 286 287 288 290 292 293 295 297 298 299 301 303 304 306 308 310 312 313 314 313 313 314
260 261 262 263 264 265 267 268 269 270 271 272 273 274 275 277 279 281 282 283 285 286 287 289 291 292 294 295 297 299 301 303 304 306 308 309 311 312 313 313 313 314
260 259 260 261 262 263 265 266 267 268 269 270 271 272 274 275 277 279 280 282 284 285 287 289 290 291 292 293 295 299 301 302 303 305 307 308 310 311 312 312 313 314
259 259 260 260 261 262 264 265 267 268 269 270 271 272 273 275 277 278 280 281 284 286 287 288 289 291 291 292 294 298 300 301 303 304 305 307 309 311 312 313 314 315
259 260 260 261 262 262 263 265 266 268 269 270 271 273 274 275 277 278 280 282 284 285 286 287 289 290 290 291 293 296 299 301 301 302 304 306 308 311 312 314 315 315
260 260 261 262 263 263 263 264 266 268 269 271 272 273 275 276 277 278 280 282 283 285 285 286 288 288 289 290 292 295 298 299 300 301 303 306 309 311 313 314 314 313
260 261 261 263 263 264 264 265 266 267 269 271 272 273 274 275 277 279 280 281 282 283 284 285 286 286 288 290 292 295 297 298 299 301 303 306 309 312 312 312 312 310
260 261 261 262 263 264 265 266 267 267 268 269 271 272 273 275 277 278 279 280 281 282 283 284 284 285 286 288 291 294 296 297 298 300 303 307 310 311 310 309 308 308
Height
10973 10974 10975 10975 10975 10975 10975 10976 10976 10975 10975 10974 10974 10973 10972 10971 10970 10969 10968 10967 10966 10966 10965 10964 10963 10962 10961 10960 10959 10958 10956 10955 10953 10952 10950 10948 10947 10945 10944 10942 10942 10940
10971 10972 10973 10973 10974 10974 10974 10974 10974 10974 10973 10973 10972 10971 10970 10969 10968 10967 10966 10965 10964 10964 10963 10962 10961 10960 10959 10958 10956 10955 10953 10952 10950 10948 10947 10945 10943 10941 10940 10939 10937 10936
10968 10969 10970 10971 10971 10972 10972 10972 10972 10972 10972 10971 10970 10969 10968 10967 10966 10965 10964 10963 10963 10962 10961 10960 10959 10957 10956 10955 10954 10952 10950 10949 10947 10945 10943 10942 10940 10938 10937 10935 10934 10932
10966 10967 10968 10968 10969 10969 10969 10970 10970 10970 10969 10968 10968 10967 10966 10965 10964 10963 10962 10961 10960 10959 10958 10957 10956 10955 10953 10952 10951 10949 10947 10946 10944 10942 10940 10939 10937 10936 10933 10932 10930 10929
10963 10964 10965 10966 10966 10966 10967 10967 10967 10967 10966 10966 10965 10964 10964 10963 10962 10961 10960 10958 10958 10957 10956 10954 10953 10952 10950 10949 10948 10946 10945 10943 10941 10939 10937 10936 10934 10933 10931 10928 10926 10925
10961 10961 10962 10963 10963 10963 10963 10964 10964 10964 10963 10963 10962 10961 10961 10960 10959 10958 10957 10956 10955 10954 10953 10951 10950 10949 10948 10946 10945 10944 10942 10940 10938 10936 10934 10932 10931 10930 10928 10926 10923 10921
10958 10959 10959 10960 10960 10960 10960 10961 10961 10960 10960 10959 10958 10957 10957 10957 10956 10955 10954 10953 10952 10951 10950 10949 10947 10946 10945 10943 10942 10941 10939 10937 10935 10933 10931 10929 10927 10926 10924 10922 10920 10918
10955 10955 10956 10956 10957 10957 10957 10957 10958 10957 10957 10956 10955 10954 10953 10953 10953 10952 10951 10950 10949 10948 10947 10946 10944 10943 10942 10940 10939 10937 10936 10934 10932 10930 10928 10925 10923 10921 10919 10918 10916 10914
10952 10952 10953 10953 10953 10953 10954 10954 10954 10953 10953 10952 10952 10951 10950 10949 10949 10948 10947 10946 10945 10944 10943 10942 10941 10940 10939 10937 10936 10934 10932 10930 10929 10927 10925 10922 10919 10917 10915 10913 10912 10909
10949 10949 10949 10949 10949 10950 10950 10950 10950 10949 10949 10948 10948 10947 10946 10945 10945 10944 10943 10943 10942 10941 10940 10938 10937 10936 10935 10933 10932 10931 10929 10927 10925 10924 10922 10919 10916 10913 10911 10909 10907 10905
10945 10945 10945 10946 10946 10946 10946 10946 10946 10945 10945 10944 10944 10943 10942 10942 10941 10940 10939 10939 10938 10937 10936 10934 10933 10932 10931 10929 10929 10928 10926 10923 10921 10920 10918 10915 10912 10909 10907 10905 10904 10902
10941 10941 10942 10942 10942 10941 10941 10942 10941 10941 10940 10940 10940 10940 10939 10938 10937 10936 10936 10935 10935 10933 10931 10930 10929 10927 10926 10925 10925 10924 10922 10919 10917 10915 10913 10910 10908 10906 10904 10902 10900 10899
10937 10937 10937 10937 10937 10937 10937 10937 10936 10937 10936 10936 10936 10936 10934 10933 10933 10932 10932 10931 10930 10929 10927 10926 10924 10922 10922 10921 10920 10919 10917 10914 10912 10910 10908 10906 10903 10902 10900 10898 10897 10896
10932 10933 10932 10932 10932 10932 10932 10932 10932 10932 10932 10932 10931 10930 10930 10929 10929 10928 10928 10927 10925 10924 10923 10921 10919 10917 10917 10916 10915 10915 10913 10910 10907 10905 10903 10901 10899 10897 10896 10894 10893 10892
10928 10928 10927 10927 10927 10927 10926 10927 10927 10927 10927 10927 10926 10925 10925 10925 10924 10924 10923 10922 10921 10920 10919 10916 10914 10913 10913 10912 10911 10910 10908 10905 10902 10900 10898 10896 10895 10894 10892 10889 10887 10887
10923 10922 10922 10922 10921 10921 10921 10921 10922 10922 10922 10922 10921 10920 10920 10920 10920 10919 10918 10917 10916 10915 10914 10911 10909 10910 10909 10908 10907 10906 10905 10902 10899 10897 10894 10892 10891 10890 10888 10885 10882 10880
10917 10916 10916 10916 10915 10915 10915 10916 10916 10916 10916 10916 10915 10915 10915 10915 10915 10914 10913 10911 10911 10910 10909 10906 10905 10906 10905 10904 10903 10902 10901 10898 10895 10892 10890 10888 10887 10886 10884 10881 10877 10874
10911 10910 10910 10909 10908 10909 10909 10910 10910 10910 10910 10909 10909 10910 10910 10911 10910 10909 10907 10906 10905 10905 10903 10902 10901 10901 10900 10899 10898 10897 10896 10894 10890 10887 10885 10883 10882 10881 10879 10876 10872 10869
10904 10904 10903 10902 10901 10902 10903 10904 10904 10903 10903 10903 10903 10904 10905 10905 10904 10903 10901 10900 10900 10899 10898 10897 10897 10896 10895 10894 10893 10892 10891 10888 10884 10881 10880 10878 10876 10875 10873 10870 10867 10864
10897 10897 10895 10894 10894 10895 10896 10897 10897 10897 10897 10897 10898 10898 10899 10899 10898 10898 10896 10894 10893 10893 10892 10892 10892 10890 10890 10888 10887 10887 10886 10883 10879 10875 10874 10872 10870 10869 10867 10864 10861 10859
10888 10888 10887 10887 10887 10888 10890 10891 10890 10890 10890 10891 10892 10893 10893 10892 10893 10892 10890 10888 10887 10887 10887 10887 10885 10884 10884 10882 10881 10881 10881 10878 10874 10870 10868 10866 10865 10863 10861 10858 10855 10853
10879 10879 10879 10880 10881 10883 10884 10884 10883 10883 10883 10885 10886 10886 10886 10886 10887 10886 10883 10882 10882 10882 10882 10880 10879 10878 10877 10876 10875 10875 10875 10873 10869 10865 10862 10860 10859 10858 10855 10853 10850 10847
10871 10871 10872 10873 10875 10878 10879 10878 10876 10876 10877 10878 10878 10879 10880 10880 10879 10879 10878 10877 10877 10877 10875 10873 10872 10872 10870 10869 10869 10870 10870 10868 10864 10859 10856 10854 10853 10851 10848 10846 10844 10841
10864 10865 10866 10866 10868 10871 10872 10871 10870 10870 10870 10870 10872 10873 10872 10871 10872 10872 10872 10872 10871 10870 10868 10867 10866 10865 10863 10863 10863 10864 10864 10862 10857 10854 10851 10849 10847 10845 10841 10839 10837 10834
10856 10858 10860 10860 10861 10863 10864 10864 10864 10864 10863 10864 10865 10866 10864 10863 10864 10865 10866 10865 10864 10863 10861 10860 10859 10857 10856 10856 10857 10858 10858 10855 10851 10848 10846 10844 10842 10838 10834 10832 10830 10827
10847 10850 10852 10852 10853 10855 10856 10857 10857 10856 10856 10858 10859 10858 10857 10857 10858 10858 10858 10857 10856 10856 10855 10853 10852 10850 10849 10850 10851 10852 10851 10848 10845 10842 10840 10839 10837 10832 10828 10826 10823 10821